Weather History for Oujda, Morocco

Change the Weather History Date:

Saturday, May 17, 2014

  Actual Average Record
Temperature  
Mean Temperature 58 °F -  
Max Temperature 60 °F 81 °F 105 °F (2006)
Min Temperature 57 °F 56 °F 48 °F (1999)
Degree Days  
Heating Degree Days 6    
Growing Degree Days 8 (Base 50)    
Moisture  
Dew Point 56 °F    
Average Humidity 89    
Maximum Humidity 100    
Minimum Humidity 74    
Precipitation  
Precipitation 0.51 in 0.03 in - ()
Sea Level Pressure  
Sea Level Pressure 29.85 in    
Wind  
Wind Speed 7 mph ()    
Max Wind Speed 23 mph    
Max Gust Speed 39 mph    
Visibility 4.0 miles    
Events Rain , Thunderstorm    
Averages and records for this station are not official NWS values.
T = Trace of Precipitation, MM = Missing Value Source: Averaged Metar Reports

Daily Weather History Graph

Daily Weather History Graph

Search for Another Location

Airport:

Trip Planner

Search our weather history database for the weather conditions in past years. The results will help you decide how hot, cold, wet, or windy it might be!

Date:

Astronomy

May. 17, 2014 Rise Set
Actual Time 6:03 AM WEST 8:05 PM WEST
Civil Twilight 5:35 AM WEST 8:33 PM WEST
Nautical Twilight 5:01 AM WEST 9:07 PM WEST
Astronomical Twilight 4:24 AM WEST 9:44 PM WEST
Moon 10:54 PM WEST (5/17) 8:30 AM WEST (5/17)
Length of Visible Light 14h 58m
Length of Day
14h 02m
Waning Gibbous, 91% of the Moon is Illuminated
May 17
Waning Gibbous
May 21
Last Quarter
May 28
New
Jun 5
First Quarter
Jun 13
Full

Hourly Weather History & Observations

Time (WEST) Temp. Dew Point Humidity Pressure Visibility Wind Dir Wind Speed Gust Speed Precip Events Conditions
1:00 AM 60 °F 54 °F 74% 29.81 in 6 mi North 6.9 mph - -   Overcast
1:00 AM 60.8 °F 53.6 °F 77% 29.83 in 6.2 mi North 6.9 mph - N/A   Mostly Cloudy
3:00 AM 59.0 °F 53.6 °F 82% 29.83 in 6.2 mi NNE 3.5 mph - N/A   Mostly Cloudy
4:00 AM 58 °F 55 °F 85% 29.81 in 6 mi North 4.6 mph - -   Overcast
5:00 AM 59.0 °F 55.4 °F 88% 29.83 in 6.2 mi North 6.9 mph - N/A   Mostly Cloudy
6:00 AM 57.2 °F 51.8 °F 82% 29.83 in 6.2 mi North 12.7 mph - N/A   Mostly Cloudy
6:40 AM 57.2 °F 51.8 °F 82% 29.83 in 5.0 mi NNE 10.4 mph - N/A   Scattered Clouds
7:00 AM 57 °F 52 °F 77% 29.83 in 5 mi NE 10.4 mph - - Thunderstorm Thunderstorm
7:00 AM 57.2 °F 51.8 °F 82% 29.83 in 5.0 mi NNE 8.1 mph - N/A Thunderstorm Thunderstorm
8:00 AM 57.2 °F 51.8 °F 82% 29.86 in 5.0 mi NNE 8.1 mph - N/A Thunderstorm Light Thunderstorm
8:50 AM 59.0 °F 51.8 °F 77% 29.86 in 5.0 mi NE 6.9 mph - N/A Rain , Thunderstorm Light Thunderstorms and Rain
9:00 AM 59.0 °F 51.8 °F 77% 29.86 in 5.0 mi NNE 6.9 mph - N/A Rain , Thunderstorm Light Thunderstorms and Rain
10:00 AM 60 °F 54 °F 74% 29.84 in 5 mi North 11.5 mph - - Thunderstorm Thunderstorm
10:00 AM 60.8 °F 53.6 °F 77% 29.86 in 5.0 mi North 12.7 mph - N/A Thunderstorm Thunderstorm
11:00 AM 57.2 °F 55.4 °F 94% 29.86 in 5.0 mi ENE 4.6 mph - N/A Thunderstorm Thunderstorm
12:00 PM 59.0 °F 55.4 °F 88% 29.86 in 5.0 mi ENE 15.0 mph - N/A Thunderstorm Thunderstorm
12:59 PM 59.0 °F 57.2 °F 94% 29.86 in 2.5 mi ESE 9.2 mph - N/A Rain , Thunderstorm Light Thunderstorms and Rain
1:00 PM 59 °F 57 °F 90% 29.85 in 2 mi ESE 8.1 mph - - Rain , Thunderstorm Thunderstorms and Rain
1:00 PM 59.0 °F 57.2 °F 94% 29.86 in 2.5 mi ESE 9.2 mph - N/A Rain , Thunderstorm Light Thunderstorms and Rain
1:28 PM 57.2 °F 57.2 °F 100% 29.89 in 2.5 mi East 10.4 mph - N/A Rain , Thunderstorm Thunderstorms and Rain
1:32 PM 57.2 °F 57.2 °F 100% 29.89 in 0.6 mi ESE 10.4 mph - N/A Rain , Thunderstorm Thunderstorms and Rain
1:41 PM 57.2 °F 57.2 °F 100% 29.80 in 0.6 mi ESE 23.0 mph 39.1 mph N/A Rain , Thunderstorm Thunderstorms and Rain
2:07 PM 57.2 °F 57.2 °F 100% 29.86 in 0.6 mi East 19.6 mph - N/A Rain , Thunderstorm Light Thunderstorms and Rain
2:30 PM 57.2 °F 57.2 °F 100% 29.86 in 3.1 mi East 10.4 mph - N/A Rain , Thunderstorm Light Thunderstorms and Rain
3:00 PM 57.2 °F 57.2 °F 100% 29.86 in 3.1 mi East 16.1 mph - N/A Rain , Thunderstorm Light Thunderstorms and Rain
3:47 PM 58 °F 58 °F 100% 29.83 in 3 mi NNW 4.6 mph - - Rain , Thunderstorm Thunderstorms and Rain
4:00 PM 59.0 °F 57.2 °F 94% 29.83 in 3.1 mi NNW 4.6 mph - N/A Rain , Thunderstorm Light Thunderstorms and Rain
5:00 PM 60.8 °F 59.0 °F 94% 29.83 in 3.7 mi WNW 5.8 mph - N/A Thunderstorm Thunderstorm
5:01 PM 60.8 °F 59.0 °F 94% 29.83 in 3.7 mi WNW 4.6 mph - N/A   Mostly Cloudy
6:00 PM 60.8 °F 59.0 °F 94% 29.83 in 3.7 mi WNW 3.5 mph - N/A   Mostly Cloudy
9:00 PM 59.0 °F 57.2 °F 94% 29.89 in 3.7 mi North 8.1 mph - N/A   Mostly Cloudy
10:00 PM 59 °F 58 °F 95% 29.88 in 4 mi NE 2.3 mph - -   Overcast
10:00 PM 59.0 °F 57.2 °F 94% 29.89 in 3.7 mi Variable 2.3 mph - N/A   Partly Cloudy
11:00 PM 59.0 °F 57.2 °F 94% 29.92 in 3.7 mi ENE 2.3 mph - N/A   Light Drizzle